This is the latest recevied weather packets stored in our database for station/object 9W2CHF-3. If no packets are shown the sender has not sent any weather packets the latest 10 day(s).
| Time | Temp. | Humidity | Pressure | Rain* | Wind** | Luminosity | Snow |
|---|---|---|---|---|---|---|---|
| 1777883217 | 39.44° C | 47% | 1008.4 hPa | - | - | - | - |
| 1777882017 | 40° C | 47% | 1008.5 hPa | - | - | - | - |
| 1777880817 | 38.33° C | 48% | 1008.8 hPa | - | - | - | - |
| 1777879617 | 38.33° C | 48% | 1009 hPa | - | - | - | - |
| 1777878417 | 38.89° C | 48% | 1009.4 hPa | - | - | - | - |
| 1777877217 | 39.44° C | 51% | 1009.8 hPa | - | - | - | - |
| 1777876020 | 38.33° C | 52% | 1010 hPa | - | - | - | - |
| 1777874820 | 37.78° C | 51% | 1010.6 hPa | - | - | - | - |
| 1777873620 | 37.22° C | 54% | 1011.2 hPa | - | - | - | - |
| 1777872420 | 34.44° C | 63% | 1011.6 hPa | - | - | - | - |
| 1777871219 | 31.67° C | 81% | 1011.9 hPa | - | - | - | - |
| 1777870019 | 31.11° C | 83% | 1012.2 hPa | - | - | - | - |
| 1777868819 | 32.22° C | 79% | 1012.4 hPa | - | - | - | - |
| 1777867619 | 37.22° C | 58% | 1012.2 hPa | - | - | - | - |
| 1777866418 | 34.44° C | 67% | 1012.4 hPa | - | - | - | - |
| 1777865218 | 36.11° C | 61% | 1012.3 hPa | - | - | - | - |
| 1777864018 | 36.11° C | 64% | 1012.5 hPa | - | - | - | - |
| 1777862818 | 36.11° C | 62% | 1012.4 hPa | - | - | - | - |
| 1777861618 | 37.78° C | 54% | 1012.4 hPa | - | - | - | - |
| 1777860418 | 36.67° C | 59% | 1012.3 hPa | - | - | - | - |
| 1777859218 | 36.11° C | 63% | 1012.5 hPa | - | - | - | - |
| 1777858020 | 35° C | 66% | 1012.2 hPa | - | - | - | - |
| 1777856818 | 35° C | 68% | 1012.1 hPa | - | - | - | - |
| 1777855618 | 34.44° C | 71% | 1011.6 hPa | - | - | - | - |
| 1777854418 | 33.89° C | 73% | 1011.4 hPa | - | - | - | - |
* Rain since midnight (hover to see other rain measurements)
** Current wind speed in m/s (hover to see current wind gust speed)